This is the latest recevied weather packets stored in our database for station/object SP1BMW-13. If no packets are shown the sender has not sent any weather packets the latest 10 day(s).
| Time | Temp. | Humidity | Pressure | Rain* | Wind** | Luminosity | Snow |
|---|---|---|---|---|---|---|---|
| 1787941938 | 21.11° C | 76% | 1008.2 hPa | 0 mm | 0 m/s | 0 W/m² | - |
| 1787941878 | 21.11° C | 76% | 1008.2 hPa | 0 mm | 0.45 m/s, 334° | 0 W/m² | - |
| 1787941818 | 21.11° C | 76% | 1008.1 hPa | 0 mm | 0 m/s | 0 W/m² | - |
| 1787941758 | 21.11° C | 75% | 1008 hPa | 0 mm | 0.45 m/s, 36° | 0 W/m² | - |
| 1787941698 | 21.11° C | 76% | 1008.1 hPa | 0 mm | 0.45 m/s, 12° | 0 W/m² | - |
| 1787941638 | 21.11° C | 75% | 1008 hPa | 0 mm | 0 m/s | 0 W/m² | - |
| 1787941578 | 21.11° C | 76% | 1007.9 hPa | 0 mm | 0 m/s | 0 W/m² | - |
| 1787941517 | 21.11° C | 76% | 1007.7 hPa | 0 mm | 0.89 m/s, 109° | 0 W/m² | - |
| 1787941458 | 21.11° C | 75% | 1007.7 hPa | 0 mm | 0 m/s | 0 W/m² | - |
| 1787941397 | 21.11° C | 76% | 1007.5 hPa | 0 mm | 0.45 m/s, 32° | 0 W/m² | - |
| 1787941338 | 21.11° C | 76% | 1007.7 hPa | 0 mm | 0.45 m/s, 121° | 0 W/m² | - |
| 1787941277 | 21.11° C | 76% | 1007.5 hPa | 0 mm | 1.34 m/s, 107° | 0 W/m² | - |
| 1787941217 | 21.11° C | 76% | 1007.7 hPa | 0 mm | 0.89 m/s, 57° | 0 W/m² | - |
| 1787941157 | 21.11° C | 76% | 1007.6 hPa | 0 mm | 0.89 m/s, 93° | 0 W/m² | - |
| 1787941097 | 21.11° C | 76% | 1007.6 hPa | 0 mm | 0.89 m/s, 83° | 0 W/m² | - |
| 1787941037 | 21.11° C | 76% | 1007.5 hPa | 0 mm | 0.45 m/s, 129° | 0 W/m² | - |
| 1787940978 | 21.11° C | 75% | 1007.6 hPa | 0 mm | 0 m/s | 0 W/m² | - |
| 1787940918 | 21.11° C | 75% | 1007.3 hPa | 0 mm | 0.45 m/s, 56° | 0 W/m² | - |
| 1787940858 | 21.11° C | 75% | 1007.4 hPa | 0 mm | 0.45 m/s, 65° | 0 W/m² | - |
| 1787940797 | 21.11° C | 75% | 1007.4 hPa | 0 mm | 0.45 m/s, 110° | 0 W/m² | - |
| 1787940737 | 21.11° C | 75% | 1007.5 hPa | 0 mm | 0.89 m/s, 49° | 0 W/m² | - |
| 1787940677 | 21.11° C | 75% | 1007.4 hPa | 0 mm | 1.34 m/s, 82° | 1 W/m² | - |
| 1787940617 | 21.11° C | 76% | 1007.4 hPa | 0 mm | 0.89 m/s, 40° | 1 W/m² | - |
| 1787940557 | 21.11° C | 76% | 1007.4 hPa | 0 mm | 0.45 m/s, 93° | 1 W/m² | - |
| 1787940497 | 21.11° C | 76% | 1007.7 hPa | 0 mm | 0.89 m/s, 48° | 1 W/m² | - |
* Rain latest hour (hover to see other rain measurements)
** Current wind speed in m/s (hover to see current wind gust speed)